TimeFrame on Redefined Productions
Outwar Torax TimeFrame

Torax TimeFrame

95 Gods Updated: 2019-03-21 13:05:01
NameTime LeftWindow Opens
Animated Captain4d 06:182019-03-17 23:47:00
Old World Drake3d 20:262019-03-18 09:39:00
Jade Dragonite3d 11:322019-03-18 18:33:00
Quiver, The Renegade1d 06:022019-03-21 00:03:00
Ormsul the Putrid1d 05:372019-03-21 00:28:00
Skybrine The Inescapable0d 19:322019-03-21 10:33:00
Lord Xordam0d 16:062019-03-21 13:59:00
Crolvak, the Fire Master0d 15:212019-03-21 14:44:00
Anguish0d 14:162019-03-21 15:49:00
Lady Chaos, Queen of the Abyss0d 11:152019-03-21 18:50:00
Windstrike The Vile0d 10:152019-03-21 19:50:00
Hyrak, Bringer of Nightmares0d 09:332019-03-21 20:32:00
Zertan, The Collector0d 08:072019-03-21 21:58:00
Ag Nabak the Abomination0d 05:212019-03-22 00:44:00
Sarcrina the Astral Priestess0d 04:532019-03-22 01:12:00
Gnorb0d 03:292019-03-22 02:36:00
Kro Shuk, Doomslayer0d 02:582019-03-22 03:07:00
Viserion, the Necrodragon0d 01:572019-03-22 04:08:00
Straya, the Underworld Ruler0d 01:042019-03-22 05:01:00
Freezebreed, The Frozen Manipulator0d 00:552019-03-22 05:10:00
Crantos, Defender of Ultimation0d 00:372019-03-22 05:28:00
Detox0d 00:362019-03-22 05:29:00
Garland, The Lord Keeper0d 00:142019-03-22 05:51:00
Terrance, Rebel of Rallis0d 00:422019-03-22 06:48:00
Felroc, Overseer of Hellfire0d 00:512019-03-22 06:57:00
Wanhiroeaz the Devourer0d 00:542019-03-22 07:00:00
Jorun the Blazing Swordsman0d 01:232019-03-22 07:29:00
Rotborn, Eater of the Dead0d 04:072019-03-22 10:13:00
Keeper of Nature0d 05:182019-03-22 11:24:00
The Emerald Assassin0d 05:252019-03-22 11:31:00
Amalgamated Apparition0d 05:432019-03-22 11:49:00
Baron Mu, Dark Rider of the Undead0d 09:362019-03-22 15:42:00
Mistress of the Sword0d 09:502019-03-22 15:56:00
Archdevil Yirkon0d 11:472019-03-22 17:53:00
Lady Ariella0d 12:222019-03-22 18:28:00
Ancient Magus Tarkin0d 12:372019-03-22 18:43:00
Ebliss, Fallen Angel of Despair0d 12:472019-03-22 18:53:00
Nessam0d 12:512019-03-22 18:57:00
Vitkros, Hydra of the Deep0d 13:452019-03-22 19:51:00
Zikkir the Dark Archer0d 14:212019-03-22 20:27:00
Synge, The Red Dragon0d 14:562019-03-22 21:02:00
Pinosis0d 15:002019-03-22 21:06:00
Nayark the Mummified Sorcerer0d 15:052019-03-22 21:11:00
Lord Varan0d 15:352019-03-22 21:41:00
Lord Sibannac0d 15:542019-03-22 22:00:00
Numerocure, The Black Messenger of Evil0d 15:552019-03-22 22:01:00
Crane0d 20:552019-03-23 03:01:00
King Ashnar, Lord of the Unliving0d 22:212019-03-23 04:27:00
Shadow1d 00:452019-03-23 06:51:00
Tsort1d 00:472019-03-23 06:53:00
Rancid, Lord of Thugs1d 01:092019-03-23 07:15:00
Brutalitar, Lord of the Underworld1d 01:242019-03-23 07:30:00
Threk, King of Lords1d 01:242019-03-23 07:30:00
Nar Zhul, Slayer of All1d 01:492019-03-23 07:55:00
Gorganus of the Wood1d 02:102019-03-23 08:16:00
Volgan the Living Ironbark1d 02:462019-03-23 08:52:00
Tylos, The Lord Master1d 02:542019-03-23 09:00:00
Traxodon the Plaguebringer1d 03:402019-03-23 09:46:00
Esquin, the Kinetic Master1d 04:422019-03-23 10:48:00
Hackerphage, Protector of the Gateway1d 08:012019-03-23 14:07:00
Samatha Dark-Soul1d 08:542019-03-23 15:00:00
Grivvek, Protector of the Brood1d 09:452019-03-23 15:51:00
Dreg nor, Keeper of the Infernal Essence1d 09:502019-03-23 15:56:00
Melt Bane, The Forbidden Demon Dragon1d 11:142019-03-23 17:20:00
Murderface1d 11:372019-03-23 17:43:00
Lord Narada1d 11:412019-03-23 17:47:00
Karvaz, Lord of Alsayic1d 12:142019-03-23 18:20:00
Akkel the Enflamed Warrior1d 12:242019-03-23 18:30:00
Smoot the Yeti1d 13:202019-03-23 19:26:00
Dlanod, the Crazed Chancellor1d 14:512019-03-23 20:57:00
Q-SEC Commander1d 16:242019-03-23 22:30:00
Howldroid, Tormentor of the Pit1d 16:402019-03-23 22:46:00
Xynak, the Arcane Master1d 23:312019-03-24 05:37:00
Ganja the Stone Golem2d 03:162019-03-24 09:22:00
Lord Suka2d 03:252019-03-24 09:31:00
Bloodchill the Grizzly2d 05:072019-03-24 11:13:00
Sylvanna TorLai2d 11:322019-03-24 17:38:00
Jazzmin, Maiden of Vitality2d 13:052019-03-24 19:11:00
Slashbrood, Devourer of the Blackness2d 19:192019-03-25 01:25:00
Sigil, Lich of Woe2d 23:562019-03-25 06:02:00
Great Lord Ganeshan3d 05:452019-03-25 11:51:00
Balerion, Dragon of Dread3d 09:002019-03-25 15:06:00
Kretok, Descendant of Nature3d 09:282019-03-25 15:34:00
Emperor Neudeus, Controller of the Universe3d 14:312019-03-25 20:37:00
Raiyar, the Shadow Master3d 16:322019-03-25 22:38:00
Bolkor, the Holy Master3d 21:062019-03-26 03:12:00
Skarthul the Avenged4d 00:262019-03-26 06:32:00
Varsanor, Master of Darkness4d 04:082019-03-26 10:14:00
Anvilfist4d 06:282019-03-26 12:34:00
Lacuste of the Swarm4d 16:062019-03-26 22:12:00
Nafir, God of Desolation5d 01:292019-03-27 07:35:00
Shaik, Servant of Arkron258d 00:222018-07-07 05:43:00
Rook, Hand of Arkron256d 02:572018-07-09 03:08:00
Noxious Slug6d 17:212019-03-15 12:44:00
Beast of Cards6d 04:442019-03-16 01:21:00